Погода в Загородном

Россия / Республика Башкортостан     53°35′13″N   55°54′17″E
темп.,
°C
ветер,
м/с
пор.,
м/с
влажн.,
%
обл.,
%
осадки,
мм/ч
давл.,
гПа
погр.,
м
27 февраля, сб
сб2723:00−19ююв499057 0.0 1021202
02:00−18юв6158767 0.0 1017438
05:00−15ююв8168583 0.0 1014587
08:00−13ююв91793100 2.3 1010697
11:00−12ююв81590100 3.5 1007713
14:00−8ююв71390100 0.7 1005738
17:00−5ююв61193100 1.1 1003605
20:00−5ююв41096100 0.9 1002386
28 февраля, вс
вс2823:00−4ююв3897100 1.9 1001277
02:00−4ююв3697100 0.9 1000163
05:00−3ю3697100 1.8 1000190
08:00−3ю3597100 1.0 999196
11:00−1ююз3598100 1.9 999324
14:00−1зсз34100100 0.7 1000291
17:00−6ссз479597 1.1 1002309
20:00−10сз369699 0.4 1005206
1 марта, пн
пн123:00−13сз239699 0.6 100850
02:00−14зсз1296100 0.1 101022
05:00−15сз2397100 0.3 101268
08:00−17сз239792 0.1 101483
11:00−15ссз239393 0.3 1015276
14:00−13сз3390100 0.1 1016422
17:00−15ссз3493100 0.1 1017333
20:00−20ссз239899 0.0 101922
2 марта, вт
вт223:00−22сз129999 0.1 102020
02:00−24з11100100 0.0 102020
05:00−25ююз11100100 0.1 102120
08:00−25ю239890 0.0 102022
11:00−19ю469458 0.0 1019256
14:00−16ююз699049 0.0 1017397
17:00−15ю7128857 0.0 1015441
20:00−17ю71392100 0.1 1014422
3 марта, ср
ср323:00−16ю71394100 0.5 1013468
02:00−16ю61194100 0.5 1010410
05:00−14ююв51193100 0.9 1009376
08:00−12ююв4109499 0.2 1007327
11:00−7ююв61192100 0.6 1006478
14:00−3ююв61092100 0.3 1004710
17:00−3ююв61092100 0.8 1003633
20:00−4юв2797100 0.4 1002285